This is the latest recevied weather packets stored in our database for station/object IW2NTF-3. If no packets are shown the sender has not sent any weather packets the latest 1 day(s).
| Time | Temp. | Humidity | Pressure | Rain* | Wind** | Luminosity | Snow |
|---|---|---|---|---|---|---|---|
| 1777972623 | 13.33° C | 86% | 1013.3 hPa | 0 mm | 1.79 m/s, 359° | 35 W/m² | - |
| 1777972563 | 13.33° C | 86% | 1013.3 hPa | 0 mm | 1.79 m/s, 360° | 35 W/m² | - |
| 1777972503 | 13.33° C | 86% | 1013.3 hPa | 0 mm | 1.79 m/s, 359° | 35 W/m² | - |
| 1777972443 | 13.33° C | 86% | 1013.3 hPa | 0 mm | 1.79 m/s, 357° | 35 W/m² | - |
| 1777972383 | 13.89° C | 86% | 1013.3 hPa | 0 mm | 1.79 m/s, 356° | 37 W/m² | - |
| 1777972332 | 13.89° C | 86% | 1013.2 hPa | 0 mm | 1.79 m/s, 355° | 42 W/m² | - |
| 1777972263 | 13.89° C | 86% | 1013.2 hPa | 0 mm | 1.79 m/s, 355° | 46 W/m² | - |
| 1777972203 | 13.89° C | 86% | 1013.2 hPa | 0 mm | 1.34 m/s, 354° | 49 W/m² | - |
| 1777972143 | 13.89° C | 86% | 1013.2 hPa | 0 mm | 1.34 m/s, 353° | 51 W/m² | - |
| 1777972083 | 13.89° C | 86% | 1013.2 hPa | 0 mm | 1.34 m/s, 354° | 49 W/m² | - |
| 1777972023 | 13.89° C | 86% | 1013.1 hPa | 0 mm | 1.34 m/s, 355° | 51 W/m² | - |
| 1777971963 | 13.89° C | 86% | 1013.2 hPa | 0 mm | 1.34 m/s, 356° | 62 W/m² | - |
| 1777971903 | 13.89° C | 86% | 1013.2 hPa | 0 mm | 1.34 m/s, 357° | 63 W/m² | - |
| 1777971843 | 13.89° C | 86% | 1013.1 hPa | 0 mm | 1.34 m/s, 359° | 65 W/m² | - |
| 1777971783 | 13.89° C | 87% | 1013 hPa | 0 mm | 1.34 m/s, 360° | 69 W/m² | - |
| 1777971723 | 13.89° C | 86% | 1013 hPa | 0 mm | 1.34 m/s, 3° | 70 W/m² | - |
| 1777971663 | 13.89° C | 87% | 1013.1 hPa | 0 mm | 1.34 m/s, 2° | 70 W/m² | - |
| 1777971604 | 13.89° C | 87% | 1013.1 hPa | 0 mm | 1.34 m/s, 3° | 69 W/m² | - |
| 1777971543 | 13.89° C | 87% | 1013 hPa | 0 mm | 1.34 m/s, 6° | 69 W/m² | - |
| 1777971483 | 13.89° C | 87% | 1013 hPa | 0 mm | 1.34 m/s, 6° | 69 W/m² | - |
| 1777971423 | 13.89° C | 87% | 1013 hPa | 0 mm | 1.34 m/s, 6° | 67 W/m² | - |
| 1777971363 | 13.89° C | 87% | 1013.1 hPa | 0 mm | 1.34 m/s, 5° | 65 W/m² | - |
| 1777971303 | 13.89° C | 87% | 1013.1 hPa | 0 mm | 1.34 m/s, 7° | 63 W/m² | - |
| 1777971243 | 13.89° C | 87% | 1013 hPa | 0 mm | 1.34 m/s, 5° | 65 W/m² | - |
| 1777971183 | 13.89° C | 87% | 1012.9 hPa | 0 mm | 1.34 m/s, 3° | 67 W/m² | - |
* Rain latest hour (hover to see other rain measurements)
** Current wind speed in m/s (hover to see current wind gust speed)